Location: Alphen
(52.1351°N, 4.6549°E)
Time: 00:57:23
(UTC+00:00)

GEOS 3 Rocket - Pass Details

Date: 27 January 2021
Orbit: 771 x 848 km, 115.0° (Epoch: 26 February)

Event Time Altitude Azimuth Distance (km) Brightness Sun altitude
Rises 04:37:16 0° 123° (ESE) 3,386 7.6 -26.2°
Reaches altitude 10° 04:39:35 10° 121° (ESE) 2,460 6.8 -25.8°
Maximum altitude 04:44:55 68° 40° (NE) 914 3.9 -25.0°
Enters shadow 04:46:51 40° 332° (NNW) 1,237 4.3 -24.7°
